Vorticity
-2 7 5 11 10 8 5 1 3 8 4 4 6 3 4 4 3 3 4 4 4 5 5 5 4 5 4 4 4 4 2 2 2 1 2 5 6 6 5 5 5 3 6
10 9 7 14 7 9 5 9 9 8 4 3 3 4 3 3 4 3 3 4 4 4 5 5 5 4 4 4 3 4 4 3 2 2 2 1 6 4 4 7 5 6 12
1 4 7 2 9 12 13 2 4 -2 8 5 2 4 3 3 4 4 4 4 4 4 4 4 4 2 2 3 5 4 5 4 3 2 1 2 6 6 6 4 6 8 5
1 -1 10 7 8 9 15 3 18 5 12 25 6 3 4 4 4 4 4 4 5 4 4 4 5 4 5 -3 2 4 4 6 3 2 1 3 6 9 4 4 6 10 2
8 6 10 9 28 1 -24 25 11 21 -8 12 -20 4 2 2 4 4 4 4 5 5 4 4 4 3 1 0 -4 -3 -1 7 6 2 3 3 6 8 5 11 7 5 4
9 4 9 24 20 11 21 -16 17 15 -3 -34 22 24 2 5 4 4 4 5 5 6 5 5 4 5 7 -6 6 -2 11 2 2 4 3 4 8 14 10 6 8 5 3
0 -3 15 4 25 2 9 12 -17 9 16 7 16 2 4 4 4 4 3 4 5 5 7 5 4 9 -3 10 2 0 14 -9 5 -3 3 7 10 11 11 8 3 4 6
12 10 21 19 19 27 -8 15 22 2 -8 -0 7 5 13 2 3 5 6 5 6 3 8 4 7 -3 6 4 1 -1 -4 7 10 18 11 13 11 3 7 7 3 6 4
4 16 7 40 15 27 -3 29 15 -7 35 30 -20 9 -4 11 0 1 3 3 2 3 5 2 1 -1 2 -2 7 18 24 18 21 15 12 18 2 4 7 12 9 5 6
16 41 12 16 25 -3 -5 -11 11 -1 -3 11 20 12 21 26 8 4 4 3 6 -0 -12 -1 -1 14 24 38 51 18 22 25 15 1 11 -1 -6 7 9 8 6 7 3
14 18 -1 13 21 0 -10 -1 16 10 -23 -22 0 -12 -12 -23 -11 18 17 16 22 35 40 45 26 11 1 19 -1 -6 10 3 8 -2 2 7 7 10 4 5 6 6 14
18 2 37 18 11 15 25 34 29 38 25 11 8 -2 -10 4 30 42 31 26 2 11 -7 3 -14 16 9 14 4 1 2 -2 8 3 1 11 6 -1 -0 4 12 13 4
-9 18 16 10 2 30 43 36 33 19 24 36 42 42 29 17 21 9 -3 1 12 -8 16 3 -8 -12 16 -5 18 4 17 3 -8 4 -3 -5 4 15 19 18 9 11 9
7 18 6 11 17 16 8 12 13 14 51 5 7 -0 -1 -3 -11 -11 2 12 11 -1 -2 18 -9 -1 31 -8 18 15 5 15 18 8 4 -3 14 18 8 11 4 10 8
12 16 -4 -27 4 9 14 11 7 14 1 7 -3 -11 9 17 -7 3 22 -0 -0 3 7 3 -9 -2 11 34 4 14 17 14 14 28 26 17 14 19 11 7 18 14 6
-9 -4 4 13 -1 15 9 18 8 9 4 12 -0 2 8 -9 8 -7 9 8 -2 10 10 3 -0 53 2 9 12 7 19 6 5 13 20 17 21 10 9 17 -2 -1 -1
9 7 13 11 2 2 16 1 2 18 4 6 27 -5 25 16 7 17 16 20 13 24 26 46 29 10 15 9 5 18 11 6 10 16 3 10 0 5 4 -3 -2 3 7
14 13 20 15 17 26 18 17 10 12 12 14 13 8 9 16 8 16 10 -2 -1 0 12 10 23 25 11 12 26 20 17 13 11 36 36 5 -0 3 4 4 9 11 7
5 4 10 8 14 -1 7 -4 -4 6 8 7 8 -12 11 6 1 15 6 3 8 0 16 -15 5 8 6 0 19 28 15 22 -0 6 2 2 -2 -2 5 9 11 6 5
7 7 6 6 6 5 5 8 1 8 5 11 10 2 -0 4 2 10 8 11 20 13 8 -3 20 8 3 14 5 0 12 -9 1 -1 1 5 6 9 10 7 7 4 5
3 3 5 7 5 5 7 5 4 6 8 10 8 7 10 4 6 1 7 7 7 2 16 27 10 4 29 -8 -4 8 9 8 -0 -1 -5 -1 4 11 11 9 6 4 6
-0 -0 0 -2 -1 3 4 3 4 10 11 7 5 7 8 8 -0 6 10 -1 -3 5 11 2 16 12 -9 -18 50 -7 26 13 -1 3 10 8 9 11 11 13 10 4 7
4 2 1 0 -3 -1 2 0 -1 4 7 8 17 7 6 7 8 7 1 7 13 9 2 2 11 6 4 4 -13 -3 -22 2 8 17 13 11 13 9 14 12 13 8 6
3 2 2 2 2 2 -2 -3 -0 2 3 3 15 24 7 7 10 7 5 8 1 3 7 11 10 13 -3 9 2 17 9 5 10 16 -2 0 14 10 12 11 11 10 8
5 6 2 1 2 7 9 3 -2 3 13 23 37 20 8 16 8 8 12 8 7 6 6 3 4 13 6 9 9 19 10 6 20 11 -5 0 13 7 9 8 8 9 12
7 3 0 10 -0 1 3 6 15 21 34 34 35 18 16 22 20 8 11 15 13 5 9 6 11 4 -5 4 2 0 13 -0 -6 11 15 20 -2 -1 6 5 11 14 16
Height
5799 5800 5801 5804 5807 5811 5814 5816 5819 5822 5825 5829 5831 5832 5834 5836 5837 5838 5840 5840 5841 5842 5842 5842 5841 5841 5841 5841 5840 5838 5836 5835 5833 5832 5830 5828 5826 5824 5821 5819 5817 5814 5812
5791 5790 5792 5796 5797 5801 5805 5807 5809 5812 5815 5818 5822 5824 5825 5827 5830 5831 5833 5834 5834 5835 5835 5835 5835 5835 5834 5833 5833 5833 5830 5829 5828 5826 5824 5823 5822 5819 5817 5814 5811 5808 5806
5780 5782 5784 5787 5789 5793 5794 5798 5800 5803 5806 5809 5813 5816 5817 5819 5821 5824 5825 5826 5827 5828 5828 5828 5828 5828 5827 5826 5826 5826 5825 5823 5821 5820 5818 5817 5816 5814 5811 5809 5806 5803 5801
5769 5770 5773 5775 5780 5781 5780 5786 5787 5787 5793 5798 5800 5805 5809 5811 5811 5815 5817 5818 5819 5820 5820 5821 5821 5820 5820 5819 5819 5819 5818 5817 5815 5813 5811 5810 5808 5807 5805 5802 5799 5797 5795
5758 5759 5761 5764 5766 5769 5771 5775 5775 5781 5783 5786 5791 5795 5799 5801 5804 5806 5808 5809 5809 5810 5811 5813 5813 5813 5813 5812 5812 5812 5812 5810 5808 5805 5804 5802 5800 5799 5798 5795 5793 5791 5789
5746 5746 5749 5752 5754 5758 5761 5766 5769 5770 5774 5776 5779 5784 5790 5790 5794 5797 5798 5800 5800 5802 5802 5803 5804 5805 5805 5804 5803 5802 5802 5801 5800 5798 5795 5794 5793 5792 5791 5789 5787 5785 5783
5736 5736 5735 5739 5742 5746 5750 5755 5759 5761 5765 5765 5768 5773 5780 5780 5784 5786 5788 5790 5792 5792 5793 5794 5794 5796 5795 5793 5792 5792 5792 5792 5791 5790 5788 5786 5786 5785 5784 5783 5780 5777 5775
5725 5725 5724 5725 5727 5732 5738 5743 5747 5753 5751 5753 5762 5762 5766 5770 5774 5774 5778 5779 5780 5782 5784 5784 5785 5785 5784 5783 5780 5780 5780 5780 5781 5779 5779 5778 5778 5777 5775 5775 5772 5770 5768
5713 5715 5714 5713 5717 5721 5727 5730 5734 5741 5744 5744 5747 5751 5753 5759 5759 5762 5766 5768 5769 5771 5773 5772 5773 5773 5772 5770 5770 5770 5768 5768 5770 5769 5770 5770 5770 5768 5766 5766 5764 5762 5760
5701 5702 5704 5708 5713 5713 5715 5722 5725 5728 5729 5731 5733 5738 5742 5745 5748 5750 5752 5755 5756 5758 5759 5759 5760 5761 5762 5761 5759 5758 5757 5757 5759 5760 5761 5760 5761 5759 5757 5758 5755 5754 5752
5691 5693 5697 5700 5703 5705 5707 5709 5711 5716 5718 5720 5722 5725 5728 5732 5735 5738 5741 5742 5744 5746 5746 5747 5749 5750 5752 5751 5750 5750 5749 5748 5747 5747 5749 5750 5750 5751 5746 5748 5746 5746 5744
5683 5687 5689 5690 5693 5694 5696 5697 5697 5702 5706 5708 5712 5714 5717 5720 5724 5726 5727 5730 5732 5736 5738 5738 5740 5742 5742 5741 5741 5740 5739 5739 5738 5737 5738 5738 5740 5742 5739 5739 5738 5736 5734
5676 5679 5681 5681 5685 5684 5686 5689 5692 5695 5698 5699 5701 5703 5707 5711 5714 5716 5717 5720 5723 5726 5727 5728 5729 5730 5730 5731 5730 5728 5729 5729 5728 5728 5728 5729 5730 5730 5730 5731 5728 5728 5728
5671 5671 5672 5674 5676 5678 5680 5682 5684 5687 5689 5691 5694 5698 5700 5703 5706 5707 5709 5710 5712 5713 5714 5717 5718 5717 5717 5718 5717 5716 5716 5716 5717 5717 5717 5720 5720 5720 5720 5721 5720 5719 5719
5667 5668 5667 5668 5670 5671 5673 5675 5678 5680 5681 5683 5686 5689 5690 5693 5695 5696 5698 5699 5699 5698 5701 5704 5703 5704 5704 5705 5704 5704 5703 5703 5703 5703 5704 5707 5708 5709 5710 5710 5711 5711 5711
5662 5662 5663 5664 5664 5665 5666 5667 5669 5671 5674 5676 5678 5679 5681 5682 5683 5684 5686 5687 5686 5687 5687 5689 5690 5691 5691 5691 5692 5691 5692 5692 5693 5694 5693 5695 5695 5699 5700 5701 5701 5701 5701
5655 5657 5658 5658 5658 5658 5660 5660 5661 5663 5664 5664 5666 5668 5669 5669 5670 5671 5671 5673 5675 5677 5673 5677 5677 5677 5677 5678 5679 5679 5680 5681 5681 5682 5683 5683 5685 5690 5691 5693 5692 5693 5694
5651 5651 5651 5651 5651 5651 5651 5652 5653 5654 5654 5654 5654 5655 5654 5654 5654 5655 5656 5658 5659 5661 5662 5665 5666 5666 5666 5666 5667 5668 5669 5669 5672 5675 5677 5678 5678 5681 5683 5683 5683 5684 5684
5647 5646 5646 5646 5645 5645 5646 5646 5646 5645 5644 5644 5645 5645 5646 5646 5645 5645 5645 5646 5647 5647 5649 5650 5653 5655 5655 5655 5656 5657 5657 5660 5663 5664 5667 5669 5671 5673 5674 5674 5675 5674 5674
5640 5640 5639 5638 5636 5636 5636 5636 5635 5635 5634 5633 5633 5634 5633 5631 5630 5630 5630 5632 5633 5634 5636 5638 5641 5641 5644 5645 5645 5646 5648 5650 5652 5655 5658 5659 5660 5663 5663 5663 5664 5664 5666
5629 5628 5628 5627 5625 5624 5623 5621 5620 5619 5618 5617 5616 5615 5614 5615 5614 5613 5615 5615 5616 5618 5620 5623 5627 5631 5632 5632 5634 5634 5636 5639 5641 5643 5644 5646 5649 5650 5652 5653 5654 5655 5656
5618 5615 5614 5612 5609 5607 5604 5602 5602 5601 5599 5598 5596 5593 5594 5596 5595 5595 5596 5599 5601 5602 5604 5607 5610 5614 5616 5617 5620 5620 5624 5626 5629 5631 5632 5634 5638 5639 5641 5642 5644 5644 5645
5604 5600 5596 5592 5588 5584 5583 5580 5579 5577 5574 5573 5572 5571 5570 5568 5571 5574 5575 5577 5580 5583 5587 5591 5594 5596 5598 5600 5603 5603 5609 5610 5614 5619 5620 5622 5625 5627 5630 5631 5633 5634 5634
5589 5584 5579 5574 5569 5560 5555 5551 5549 5548 5546 5543 5543 5545 5546 5547 5546 5547 5551 5555 5559 5563 5567 5571 5576 5581 5582 5584 5587 5592 5594 5597 5600 5602 5605 5609 5613 5615 5617 5620 5621 5622 5624
5571 5566 5559 5552 5546 5540 5533 5526 5519 5510 5507 5506 5506 5511 5514 5519 5522 5524 5527 5531 5536 5541 5546 5550 5554 5558 5563 5568 5573 5576 5582 5584 5586 5588 5591 5596 5598 5601 5606 5608 5610 5611 5612
5553 5546 5538 5529 5521 5512 5502 5492 5481 5472 5469 5468 5468 5471 5472 5479 5486 5490 5497 5503 5510 5518 5521 5526 5532 5539 5543 5549 5556 5560 5563 5568 5573 5575 5579 5582 5585 5589 5594 5596 5598 5599 5601